QPF
0.00 0.00 0.00 0.00 0.01 0.01 0.01 0.01 0.01 0.01 0.01 0.01 0.01 0.01 0.01 0.01 0.01 0.01 0.01 0.01 0.01 0.01 0.01 0.02 0.01 0.01 0.01 0.01 0.01 0.01 0.00 0.00 0.00 0.00 0.00 0.01 0.01 0.00 0.00 0.01 0.01 0.01 0.01
0.00 0.00 0.00 0.01 0.01 0.01 0.01 0.01 0.01 0.01 0.01 0.01 0.01 0.01 0.01 0.01 0.01 0.01 0.01 0.01 0.01 0.01 0.01 0.02 0.01 0.02 0.02 0.01 0.00 0.00 0.00 0.00 0.00 0.00 0.00 0.00 0.00 0.01 0.01 0.01 0.01 0.01 0.01
0.00 0.00 0.00 0.01 0.01 0.02 0.02 0.02 0.02 0.01 0.01 0.01 0.01 0.02 0.02 0.01 0.01 0.01 0.01 0.01 0.01 0.01 0.02 0.02 0.01 0.01 0.01 0.00 0.00 0.00 0.00 0.00 0.00 0.00 0.00 0.00 0.01 0.01 0.02 0.01 0.01 0.01 0.01
0.00 0.00 0.00 0.01 0.01 0.02 0.02 0.02 0.02 0.02 0.01 0.01 0.02 0.02 0.02 0.01 0.01 0.01 0.01 0.01 0.01 0.01 0.02 0.02 0.01 0.01 0.00 0.00 0.00 0.00 0.00 0.00 0.00 0.00 0.00 0.01 0.01 0.02 0.02 0.01 0.01 0.01 0.01
0.00 0.00 0.00 0.01 0.01 0.02 0.03 0.03 0.03 0.03 0.02 0.02 0.02 0.02 0.02 0.02 0.02 0.01 0.01 0.02 0.02 0.01 0.01 0.01 0.01 0.00 0.00 0.00 0.00 0.00 0.00 0.00 0.00 0.00 0.01 0.01 0.01 0.02 0.01 0.01 0.01 0.01 0.01
0.00 0.00 0.01 0.01 0.02 0.02 0.03 0.04 0.04 0.04 0.03 0.03 0.03 0.02 0.02 0.02 0.03 0.02 0.02 0.01 0.01 0.01 0.01 0.01 0.00 0.00 0.00 0.00 0.00 0.00 0.00 0.00 0.00 0.00 0.01 0.01 0.01 0.01 0.01 0.01 0.01 0.02 0.02
0.00 0.00 0.01 0.01 0.02 0.03 0.04 0.05 0.05 0.05 0.05 0.04 0.04 0.04 0.03 0.03 0.03 0.02 0.02 0.01 0.01 0.01 0.01 0.01 0.00 0.00 0.00 0.00 0.00 0.00 0.00 0.00 0.00 0.01 0.01 0.01 0.01 0.02 0.02 0.02 0.03 0.02 0.02
0.00 0.00 0.01 0.02 0.03 0.04 0.05 0.06 0.07 0.07 0.07 0.06 0.06 0.06 0.05 0.04 0.03 0.02 0.01 0.01 0.01 0.01 0.01 0.01 0.00 0.00 0.00 0.00 0.00 0.00 0.00 0.00 0.00 0.00 0.01 0.01 0.01 0.02 0.03 0.02 0.02 0.02 0.01
0.00 0.01 0.01 0.03 0.04 0.05 0.06 0.08 0.10 0.10 0.09 0.09 0.08 0.08 0.07 0.05 0.04 0.03 0.02 0.01 0.01 0.01 0.01 0.01 0.01 0.00 0.00 0.00 0.00 0.00 0.00 0.00 0.00 0.00 0.00 0.01 0.02 0.02 0.01 0.01 0.01 0.01 0.00
0.01 0.02 0.02 0.03 0.05 0.07 0.08 0.09 0.12 0.13 0.12 0.12 0.11 0.09 0.07 0.07 0.06 0.05 0.02 0.02 0.01 0.01 0.01 0.01 0.01 0.01 0.00 0.00 0.00 0.00 0.00 0.00 0.00 0.00 0.00 0.00 0.01 0.01 0.00 0.00 0.00 0.00 0.00
0.02 0.03 0.03 0.04 0.07 0.10 0.11 0.10 0.13 0.15 0.17 0.17 0.15 0.12 0.08 0.07 0.05 0.05 0.04 0.02 0.02 0.01 0.01 0.01 0.01 0.00 0.00 0.00 0.00 0.00 0.00 0.00 0.00 0.00 0.00 0.01 0.01 0.01 0.01 0.00 0.00 0.00 0.00
0.02 0.04 0.05 0.05 0.08 0.12 0.13 0.15 0.16 0.18 0.19 0.19 0.14 0.11 0.10 0.07 0.04 0.03 0.04 0.04 0.02 0.02 0.01 0.01 0.01 0.00 0.00 0.00 0.00 0.00 0.00 0.00 0.00 0.00 0.00 0.01 0.02 0.01 0.01 0.00 0.00 0.00 0.00
0.02 0.04 0.06 0.08 0.10 0.13 0.15 0.17 0.19 0.18 0.18 0.18 0.13 0.10 0.08 0.07 0.05 0.05 0.04 0.04 0.04 0.03 0.02 0.01 0.01 0.00 0.00 0.00 0.00 0.00 0.00 0.00 0.00 0.00 0.00 0.01 0.01 0.01 0.01 0.00 0.00 0.00 0.00
0.03 0.05 0.07 0.09 0.12 0.14 0.18 0.19 0.18 0.18 0.15 0.14 0.14 0.12 0.09 0.07 0.05 0.04 0.03 0.02 0.02 0.02 0.02 0.01 0.00 0.00 0.00 0.00 0.00 0.00 0.00 0.00 0.00 0.00 0.00 0.00 0.01 0.00 0.00 0.00 0.00 0.00 0.00
0.03 0.06 0.08 0.10 0.12 0.15 0.19 0.24 0.22 0.19 0.15 0.13 0.13 0.15 0.12 0.06 0.04 0.04 0.02 0.02 0.02 0.01 0.01 0.01 0.00 0.00 0.00 0.00 0.00 0.00 0.00 0.00 0.00 0.00 0.00 0.00 0.00 0.00 0.00 0.00 0.00 0.00 0.00
0.03 0.05 0.08 0.11 0.13 0.16 0.19 0.23 0.25 0.23 0.18 0.17 0.15 0.14 0.13 0.11 0.06 0.04 0.03 0.02 0.02 0.01 0.01 0.01 0.00 0.00 0.00 0.00 0.00 0.00 0.00 0.00 0.00 0.00 0.00 0.00 0.00 0.00 0.00 0.00 0.00 0.00 0.00
0.04 0.06 0.08 0.11 0.15 0.17 0.18 0.22 0.25 0.25 0.22 0.19 0.17 0.14 0.13 0.12 0.12 0.08 0.04 0.02 0.02 0.01 0.01 0.01 0.01 0.00 0.00 0.00 0.00 0.00 0.00 0.00 0.00 0.00 0.00 0.00 0.00 0.00 0.00 0.00 0.00 0.00 0.00
0.05 0.06 0.08 0.11 0.15 0.19 0.21 0.22 0.27 0.29 0.26 0.22 0.21 0.15 0.13 0.12 0.12 0.13 0.10 0.06 0.03 0.01 0.01 0.01 0.01 0.00 0.00 0.00 0.00 0.00 0.00 0.00 0.00 0.00 0.00 0.00 0.00 0.00 0.00 0.00 0.00 0.00 0.00
0.05 0.06 0.08 0.12 0.13 0.17 0.26 0.25 0.27 0.29 0.30 0.27 0.27 0.24 0.17 0.14 0.12 0.13 0.14 0.10 0.05 0.03 0.01 0.01 0.01 0.00 0.00 0.00 0.00 0.00 0.00 0.00 0.00 0.00 0.00 0.00 0.00 0.00 0.00 0.00 0.00 0.00 0.00
0.04 0.06 0.08 0.12 0.14 0.15 0.27 0.33 0.30 0.33 0.32 0.30 0.28 0.26 0.21 0.16 0.12 0.10 0.13 0.14 0.10 0.06 0.03 0.01 0.01 0.00 0.00 0.00 0.00 0.00 0.00 0.00 0.00 0.00 0.00 0.00 0.00 0.00 0.00 0.00 0.00 0.00 0.00
0.05 0.06 0.08 0.12 0.14 0.15 0.23 0.36 0.35 0.33 0.35 0.31 0.26 0.25 0.21 0.18 0.14 0.10 0.09 0.10 0.13 0.11 0.06 0.03 0.01 0.01 0.00 0.00 0.00 0.00 0.00 0.00 0.00 0.00 0.00 0.00 0.00 0.00 0.00 0.00 0.00 0.00 0.00
0.05 0.06 0.07 0.11 0.13 0.13 0.19 0.31 0.39 0.33 0.34 0.34 0.28 0.25 0.24 0.19 0.15 0.11 0.08 0.08 0.08 0.09 0.09 0.05 0.03 0.02 0.01 0.00 0.00 0.00 0.00 0.00 0.00 0.00 0.00 0.00 0.00 0.00 0.00 0.00 0.00 0.00 0.00
0.06 0.06 0.07 0.10 0.14 0.13 0.19 0.28 0.38 0.42 0.35 0.37 0.34 0.26 0.25 0.23 0.17 0.12 0.07 0.07 0.07 0.06 0.06 0.05 0.04 0.02 0.01 0.01 0.00 0.00 0.00 0.00 0.00 0.00 0.00 0.00 0.00 0.00 0.00 0.00 0.00 0.00 0.00
0.05 0.07 0.09 0.11 0.12 0.13 0.19 0.27 0.33 0.38 0.32 0.29 0.29 0.25 0.23 0.22 0.19 0.14 0.09 0.06 0.07 0.07 0.04 0.03 0.03 0.03 0.02 0.01 0.01 0.00 0.00 0.00 0.00 0.00 0.00 0.00 0.00 0.00 0.00 0.00 0.00 0.00 0.00
0.04 0.05 0.10 0.13 0.13 0.13 0.17 0.26 0.31 0.32 0.29 0.23 0.25 0.26 0.23 0.21 0.20 0.16 0.12 0.07 0.06 0.07 0.06 0.04 0.03 0.02 0.02 0.02 0.01 0.01 0.00 0.00 0.00 0.00 0.00 0.00 0.00 0.00 0.00 0.00 0.00 0.00 0.00
0.06 0.05 0.09 0.15 0.15 0.15 0.17 0.22 0.29 0.29 0.29 0.23 0.22 0.24 0.23 0.20 0.19 0.17 0.14 0.10 0.06 0.05 0.05 0.05 0.04 0.03 0.02 0.02 0.01 0.01 0.00 0.00 0.00 0.00 0.00 0.00 0.00 0.00 0.00 0.00 0.00 0.00 0.00
MSLP
1002.50 1002.10 1002.00 1002.20 1002.63 1003.20 1003.79 1004.33 1004.76 1005.06 1005.27 1005.44 1005.66 1005.96 1006.36 1006.85 1007.39 1007.93 1008.43 1008.86 1009.21 1009.52 1009.82 1010.14 1010.49 1010.90 1011.33 1011.76 1012.16 1012.50 1012.78 1013.02 1013.21 1013.40 1013.60 1013.80 1014.01 1014.20 1014.36 1014.46 1014.50 1014.49 1014.44
1002.74 1002.36 1002.25 1002.42 1002.80 1003.32 1003.87 1004.37 1004.77 1005.05 1005.26 1005.45 1005.68 1005.99 1006.41 1006.92 1007.47 1008.01 1008.51 1008.94 1009.31 1009.63 1009.95 1010.28 1010.66 1011.07 1011.51 1011.94 1012.34 1012.68 1012.97 1013.20 1013.41 1013.61 1013.82 1014.03 1014.24 1014.43 1014.57 1014.66 1014.68 1014.66 1014.62
1002.89 1002.54 1002.43 1002.57 1002.93 1003.41 1003.92 1004.40 1004.78 1005.06 1005.28 1005.48 1005.72 1006.04 1006.46 1006.94 1007.47 1007.99 1008.48 1008.90 1009.28 1009.63 1009.98 1010.36 1010.77 1011.22 1011.67 1012.11 1012.51 1012.84 1013.12 1013.35 1013.56 1013.76 1013.97 1014.19 1014.39 1014.57 1014.70 1014.78 1014.80 1014.78 1014.76
1002.98 1002.66 1002.56 1002.69 1003.01 1003.45 1003.92 1004.37 1004.74 1005.03 1005.26 1005.49 1005.74 1006.06 1006.46 1006.92 1007.42 1007.91 1008.37 1008.79 1009.19 1009.58 1009.98 1010.41 1010.88 1011.36 1011.85 1012.29 1012.68 1013.01 1013.27 1013.48 1013.68 1013.87 1014.07 1014.28 1014.48 1014.65 1014.77 1014.85 1014.88 1014.89 1014.89
1003.08 1002.80 1002.70 1002.80 1003.07 1003.45 1003.87 1004.27 1004.62 1004.91 1005.16 1005.41 1005.68 1006.02 1006.42 1006.86 1007.33 1007.80 1008.25 1008.68 1009.10 1009.54 1010.00 1010.50 1011.03 1011.56 1012.06 1012.52 1012.89 1013.19 1013.43 1013.62 1013.79 1013.97 1014.16 1014.36 1014.54 1014.70 1014.83 1014.91 1014.97 1015.01 1015.05
1003.29 1003.02 1002.90 1002.95 1003.14 1003.43 1003.76 1004.09 1004.39 1004.67 1004.93 1005.21 1005.53 1005.90 1006.32 1006.77 1007.24 1007.71 1008.17 1008.62 1009.09 1009.58 1010.11 1010.67 1011.25 1011.82 1012.34 1012.78 1013.14 1013.41 1013.61 1013.77 1013.92 1014.08 1014.26 1014.44 1014.63 1014.79 1014.92 1015.02 1015.09 1015.17 1015.26
1003.65 1003.36 1003.20 1003.17 1003.26 1003.42 1003.62 1003.85 1004.08 1004.32 1004.59 1004.91 1005.28 1005.71 1006.18 1006.68 1007.18 1007.68 1008.17 1008.67 1009.18 1009.72 1010.31 1010.92 1011.54 1012.13 1012.65 1013.08 1013.40 1013.64 1013.80 1013.93 1014.06 1014.21 1014.38 1014.57 1014.75 1014.92 1015.07 1015.18 1015.28 1015.39 1015.51
1004.15 1003.84 1003.61 1003.49 1003.43 1003.44 1003.49 1003.57 1003.70 1003.89 1004.16 1004.51 1004.95 1005.46 1006.01 1006.59 1007.16 1007.72 1008.26 1008.81 1009.37 1009.96 1010.59 1011.23 1011.87 1012.45 1012.96 1013.36 1013.65 1013.84 1013.98 1014.08 1014.20 1014.35 1014.53 1014.73 1014.93 1015.12 1015.28 1015.41 1015.53 1015.65 1015.80
1004.73 1004.39 1004.10 1003.86 1003.67 1003.50 1003.38 1003.31 1003.32 1003.44 1003.69 1004.07 1004.58 1005.17 1005.83 1006.50 1007.16 1007.80 1008.41 1009.00 1009.61 1010.24 1010.88 1011.53 1012.16 1012.73 1013.20 1013.57 1013.82 1013.99 1014.10 1014.20 1014.32 1014.48 1014.69 1014.92 1015.15 1015.36 1015.54 1015.69 1015.82 1015.95 1016.10
1005.27 1004.91 1004.57 1004.24 1003.91 1003.59 1003.30 1003.08 1002.97 1003.01 1003.23 1003.63 1004.19 1004.88 1005.63 1006.40 1007.16 1007.88 1008.55 1009.20 1009.84 1010.48 1011.13 1011.76 1012.37 1012.91 1013.35 1013.68 1013.91 1014.05 1014.16 1014.27 1014.41 1014.60 1014.83 1015.10 1015.37 1015.61 1015.82 1015.98 1016.12 1016.24 1016.38
1005.66 1005.30 1004.94 1004.55 1004.12 1003.67 1003.24 1002.89 1002.67 1002.63 1002.81 1003.21 1003.81 1004.56 1005.40 1006.26 1007.11 1007.90 1008.64 1009.33 1009.99 1010.63 1011.27 1011.88 1012.46 1012.96 1013.37 1013.68 1013.90 1014.05 1014.17 1014.30 1014.46 1014.68 1014.96 1015.26 1015.57 1015.85 1016.08 1016.26 1016.40 1016.51 1016.63
1005.79 1005.47 1005.12 1004.71 1004.22 1003.70 1003.17 1002.72 1002.41 1002.30 1002.43 1002.82 1003.43 1004.22 1005.11 1006.04 1006.95 1007.82 1008.61 1009.34 1010.02 1010.66 1011.28 1011.87 1012.42 1012.90 1013.30 1013.60 1013.83 1014.00 1014.15 1014.30 1014.50 1014.75 1015.06 1015.39 1015.73 1016.04 1016.30 1016.50 1016.65 1016.76 1016.86
1005.63 1005.36 1005.04 1004.64 1004.16 1003.61 1003.05 1002.55 1002.18 1002.01 1002.09 1002.44 1003.03 1003.81 1004.72 1005.69 1006.66 1007.58 1008.42 1009.19 1009.90 1010.56 1011.17 1011.75 1012.28 1012.76 1013.16 1013.49 1013.75 1013.96 1014.14 1014.33 1014.56 1014.83 1015.15 1015.51 1015.86 1016.20 1016.48 1016.70 1016.87 1016.98 1017.07
1005.17 1004.94 1004.67 1004.32 1003.88 1003.36 1002.82 1002.32 1001.93 1001.72 1001.74 1002.03 1002.57 1003.31 1004.21 1005.20 1006.20 1007.17 1008.07 1008.90 1009.65 1010.33 1010.97 1011.56 1012.10 1012.59 1013.02 1013.39 1013.70 1013.96 1014.20 1014.43 1014.67 1014.95 1015.27 1015.62 1015.97 1016.31 1016.62 1016.87 1017.06 1017.19 1017.28
1004.45 1004.24 1004.01 1003.72 1003.36 1002.93 1002.46 1002.01 1001.63 1001.39 1001.36 1001.57 1002.03 1002.71 1003.56 1004.54 1005.57 1006.59 1007.57 1008.47 1009.28 1010.03 1010.70 1011.32 1011.90 1012.43 1012.92 1013.35 1013.72 1014.05 1014.34 1014.60 1014.86 1015.13 1015.43 1015.75 1016.08 1016.41 1016.72 1017.00 1017.22 1017.38 1017.50
1003.53 1003.30 1003.08 1002.86 1002.60 1002.29 1001.94 1001.58 1001.25 1001.01 1000.93 1001.04 1001.40 1001.98 1002.77 1003.73 1004.78 1005.86 1006.93 1007.93 1008.84 1009.66 1010.41 1011.09 1011.71 1012.30 1012.85 1013.35 1013.81 1014.21 1014.56 1014.86 1015.13 1015.38 1015.64 1015.91 1016.19 1016.50 1016.80 1017.09 1017.35 1017.55 1017.69
1002.50 1002.18 1001.94 1001.78 1001.63 1001.48 1001.28 1001.05 1000.79 1000.56 1000.43 1000.45 1000.69 1001.16 1001.87 1002.80 1003.87 1005.03 1006.19 1007.31 1008.34 1009.27 1010.10 1010.85 1011.54 1012.18 1012.79 1013.38 1013.92 1014.40 1014.81 1015.16 1015.44 1015.67 1015.88 1016.09 1016.32 1016.57 1016.86 1017.15 1017.42 1017.66 1017.84
1001.40 1000.94 1000.66 1000.53 1000.51 1000.52 1000.51 1000.42 1000.27 1000.07 999.89 999.82 999.93 1000.29 1000.91 1001.80 1002.89 1004.13 1005.41 1006.66 1007.82 1008.86 1009.78 1010.60 1011.34 1012.04 1012.71 1013.36 1013.98 1014.55 1015.04 1015.43 1015.73 1015.95 1016.12 1016.26 1016.43 1016.62 1016.86 1017.14 1017.42 1017.68 1017.88
1000.27 999.63 999.28 999.19 999.29 999.48 999.66 999.75 999.71 999.56 999.35 999.18 999.17 999.41 999.95 1000.80 1001.91 1003.22 1004.61 1006.00 1007.29 1008.44 1009.44 1010.31 1011.10 1011.83 1012.55 1013.26 1013.95 1014.59 1015.16 1015.62 1015.95 1016.17 1016.31 1016.40 1016.50 1016.63 1016.81 1017.05 1017.32 1017.58 1017.80
999.12 998.30 997.86 997.80 998.03 998.41 998.80 999.07 999.15 999.05 998.82 998.58 998.46 998.59 999.04 999.85 1000.98 1002.35 1003.85 1005.35 1006.76 1008.00 1009.07 1009.98 1010.78 1011.53 1012.27 1013.01 1013.76 1014.48 1015.13 1015.66 1016.05 1016.29 1016.42 1016.48 1016.51 1016.58 1016.70 1016.88 1017.12 1017.37 1017.58
997.97 996.97 996.46 996.45 996.80 997.36 997.94 998.39 998.61 998.58 998.34 998.04 997.83 997.85 998.23 999.00 1000.15 1001.57 1003.16 1004.76 1006.26 1007.57 1008.68 1009.60 1010.40 1011.13 1011.86 1012.63 1013.42 1014.20 1014.93 1015.54 1016.00 1016.28 1016.42 1016.46 1016.45 1016.46 1016.51 1016.64 1016.83 1017.05 1017.26
996.85 995.71 995.16 995.18 995.65 996.37 997.13 997.75 998.09 998.12 997.90 997.56 997.28 997.24 997.55 998.30 999.45 1000.92 1002.57 1004.24 1005.80 1007.16 1008.28 1009.20 1009.97 1010.67 1011.38 1012.14 1012.95 1013.78 1014.57 1015.26 1015.79 1016.13 1016.31 1016.35 1016.32 1016.28 1016.28 1016.36 1016.50 1016.68 1016.87
995.81 994.58 993.99 994.05 994.61 995.46 996.36 997.11 997.56 997.66 997.47 997.12 996.82 996.73 997.02 997.75 998.91 1000.41 1002.10 1003.82 1005.42 1006.80 1007.92 1008.81 1009.53 1010.19 1010.86 1011.59 1012.40 1013.26 1014.10 1014.86 1015.46 1015.87 1016.09 1016.16 1016.13 1016.07 1016.03 1016.06 1016.16 1016.31 1016.48
994.91 993.63 993.02 993.10 993.70 994.61 995.60 996.44 996.97 997.14 997.00 996.68 996.40 996.32 996.61 997.35 998.53 1000.04 1001.76 1003.51 1005.12 1006.50 1007.60 1008.46 1009.15 1009.75 1010.37 1011.07 1011.87 1012.73 1013.60 1014.40 1015.05 1015.52 1015.79 1015.89 1015.88 1015.83 1015.78 1015.79 1015.86 1016.00 1016.17
994.20 992.89 992.26 992.31 992.90 993.82 994.82 995.69 996.28 996.51 996.45 996.21 995.99 995.97 996.31 997.08 998.28 999.81 1001.54 1003.29 1004.90 1006.27 1007.35 1008.19 1008.84 1009.40 1009.98 1010.64 1011.41 1012.25 1013.12 1013.93 1014.62 1015.13 1015.44 1015.59 1015.61 1015.58 1015.55 1015.56 1015.64 1015.77 1015.95
993.70 992.38 991.70 991.69 992.20 993.04 993.99 994.84 995.45 995.75 995.78 995.65 995.55 995.65 996.08 996.91 998.15 999.69 1001.42 1003.15 1004.74 1006.09 1007.16 1007.98 1008.61 1009.15 1009.70 1010.33 1011.05 1011.86 1012.70 1013.50 1014.19 1014.72 1015.06 1015.25 1015.32 1015.33 1015.33 1015.38 1015.48 1015.64 1015.83
Thickness
5799 5801 5797 5795 5793 5791 5790 5789 5787 5785 5782 5781 5779 5777 5775 5773 5772 5770 5769 5767 5765 5763 5762 5759 5757 5755 5753 5751 5749 5747 5744 5743 5741 5739 5737 5736 5734 5733 5731 5730 5728 5726 5724
5799 5798 5792 5790 5788 5786 5785 5784 5782 5780 5778 5777 5775 5773 5771 5770 5768 5766 5765 5763 5762 5760 5758 5756 5754 5752 5750 5747 5745 5743 5741 5739 5737 5735 5734 5732 5731 5729 5727 5726 5724 5722 5720
5794 5792 5786 5784 5782 5781 5780 5779 5777 5776 5774 5772 5771 5769 5767 5765 5764 5762 5761 5759 5758 5756 5755 5753 5750 5748 5746 5743 5742 5739 5737 5736 5735 5733 5731 5729 5727 5725 5724 5722 5720 5718 5716
5788 5785 5781 5778 5776 5775 5774 5773 5772 5771 5769 5768 5766 5764 5763 5761 5759 5758 5756 5755 5754 5752 5750 5748 5746 5744 5742 5739 5738 5736 5734 5733 5732 5730 5728 5725 5724 5722 5720 5718 5716 5714 5712
5781 5778 5775 5772 5770 5769 5769 5768 5767 5766 5764 5763 5761 5760 5758 5757 5755 5753 5752 5750 5749 5747 5745 5743 5742 5740 5737 5735 5734 5732 5731 5729 5728 5727 5725 5722 5720 5718 5716 5714 5712 5709 5707
5771 5771 5768 5765 5764 5763 5763 5762 5761 5760 5759 5758 5756 5755 5754 5752 5750 5748 5747 5745 5744 5742 5740 5738 5737 5735 5733 5731 5729 5728 5727 5726 5725 5723 5721 5718 5716 5714 5712 5709 5707 5705 5703
5762 5762 5760 5759 5758 5757 5757 5756 5755 5755 5754 5753 5751 5750 5749 5747 5745 5744 5742 5740 5739 5737 5735 5734 5732 5730 5729 5727 5725 5724 5723 5722 5721 5719 5716 5714 5712 5710 5708 5705 5703 5700 5697
5752 5753 5752 5751 5751 5751 5751 5750 5750 5749 5749 5748 5746 5745 5743 5742 5740 5738 5736 5735 5733 5732 5730 5729 5727 5725 5724 5722 5721 5720 5719 5719 5717 5715 5712 5709 5707 5705 5703 5700 5698 5695 5692
5741 5743 5742 5742 5742 5743 5744 5744 5744 5744 5743 5742 5741 5739 5738 5736 5734 5733 5731 5729 5728 5726 5725 5724 5722 5720 5719 5717 5716 5715 5715 5714 5713 5711 5708 5705 5703 5701 5698 5695 5693 5690 5687
5727 5730 5732 5733 5734 5735 5736 5737 5737 5737 5737 5736 5735 5733 5732 5730 5728 5727 5725 5724 5723 5721 5720 5719 5717 5715 5714 5712 5711 5711 5711 5710 5708 5706 5703 5700 5698 5696 5693 5691 5688 5685 5682
5710 5715 5720 5722 5725 5727 5728 5729 5730 5730 5730 5729 5728 5727 5725 5724 5722 5720 5720 5718 5717 5716 5714 5713 5711 5710 5709 5707 5707 5706 5706 5705 5704 5700 5698 5695 5693 5691 5688 5685 5683 5680 5676
5692 5700 5706 5711 5715 5718 5719 5721 5722 5723 5722 5722 5721 5720 5719 5718 5717 5715 5714 5713 5712 5710 5709 5707 5706 5704 5703 5702 5702 5702 5702 5701 5699 5695 5692 5690 5688 5686 5683 5680 5678 5674 5671
5679 5685 5693 5699 5704 5707 5710 5711 5713 5715 5715 5716 5716 5715 5714 5712 5711 5709 5707 5706 5705 5704 5703 5701 5700 5700 5699 5698 5697 5697 5697 5697 5694 5690 5687 5685 5683 5681 5678 5675 5672 5669 5666
5663 5671 5680 5686 5691 5696 5700 5703 5705 5706 5708 5709 5710 5711 5710 5708 5706 5705 5703 5702 5700 5699 5698 5697 5696 5696 5695 5694 5693 5693 5692 5691 5689 5685 5682 5680 5678 5676 5673 5670 5667 5664 5661
5647 5656 5665 5673 5679 5685 5689 5693 5695 5698 5701 5703 5705 5706 5706 5704 5702 5700 5699 5698 5696 5695 5693 5693 5693 5692 5691 5689 5688 5688 5687 5686 5684 5680 5677 5675 5673 5670 5668 5665 5662 5659 5656
5634 5643 5651 5659 5667 5673 5678 5682 5687 5689 5693 5696 5699 5701 5701 5700 5698 5696 5696 5694 5692 5691 5690 5689 5689 5687 5686 5685 5684 5683 5682 5680 5678 5675 5672 5670 5667 5665 5662 5660 5657 5654 5650
5621 5629 5637 5645 5654 5661 5667 5672 5677 5681 5685 5688 5692 5695 5696 5696 5694 5693 5691 5690 5688 5686 5685 5685 5684 5683 5681 5680 5678 5677 5676 5675 5673 5670 5667 5665 5662 5659 5657 5654 5651 5648 5645
5608 5616 5625 5633 5641 5648 5655 5661 5667 5672 5676 5681 5685 5688 5690 5691 5690 5689 5686 5685 5683 5682 5681 5680 5678 5676 5675 5674 5672 5671 5670 5669 5668 5665 5663 5660 5657 5654 5651 5648 5646 5642 5639
5596 5604 5613 5622 5629 5637 5644 5650 5657 5663 5667 5673 5678 5681 5684 5685 5685 5684 5682 5680 5679 5677 5676 5675 5673 5671 5669 5667 5666 5664 5663 5662 5661 5660 5658 5656 5653 5650 5646 5643 5640 5637 5634
5586 5594 5603 5611 5619 5626 5632 5638 5645 5651 5658 5664 5670 5673 5676 5678 5680 5679 5677 5676 5673 5672 5670 5669 5667 5666 5664 5662 5660 5657 5656 5656 5655 5654 5653 5651 5648 5645 5642 5638 5635 5631 5628
5576 5584 5592 5600 5609 5615 5621 5628 5634 5641 5649 5656 5663 5668 5670 5671 5673 5674 5672 5670 5668 5667 5666 5664 5662 5660 5657 5656 5652 5647 5647 5649 5648 5648 5647 5646 5643 5641 5637 5634 5630 5626 5623
5566 5574 5583 5591 5599 5607 5615 5621 5627 5634 5642 5649 5655 5659 5663 5665 5667 5668 5668 5666 5664 5662 5660 5659 5657 5654 5652 5651 5647 5641 5636 5636 5639 5642 5641 5640 5638 5635 5633 5629 5626 5622 5618
5557 5566 5576 5583 5589 5598 5606 5613 5619 5625 5631 5638 5645 5651 5656 5659 5661 5662 5663 5662 5660 5659 5657 5656 5654 5652 5648 5646 5645 5642 5635 5632 5632 5634 5635 5634 5632 5630 5627 5625 5621 5617 5613
5550 5559 5567 5574 5582 5590 5598 5604 5612 5617 5624 5634 5640 5645 5649 5652 5655 5656 5657 5657 5655 5655 5654 5653 5651 5649 5646 5642 5641 5642 5642 5640 5632 5627 5627 5628 5627 5625 5623 5620 5616 5612 5608
5542 5551 5559 5567 5574 5583 5591 5597 5605 5611 5619 5627 5633 5637 5641 5645 5648 5650 5651 5652 5651 5651 5650 5649 5647 5645 5643 5641 5638 5637 5636 5636 5635 5627 5621 5620 5620 5620 5618 5615 5612 5608 5603
5534 5542 5551 5558 5566 5576 5584 5592 5600 5607 5613 5619 5626 5630 5634 5638 5640 5644 5646 5647 5647 5647 5646 5645 5644 5641 5640 5638 5636 5634 5632 5631 5629 5627 5622 5617 5614 5613 5613 5610 5607 5603 5598